{"data":{"norad_id":68535,"intl_designator":"2026-068AD","name":"STARLINK-37234","alt_names":[],"object_type":"PAYLOAD","status":"ACTIVE","operator":null,"country":"US","launch_date":"2026-03-30","launch_site_code":"AFETR","launch_vehicle":null,"mission":null,"orbit_class":"UNKNOWN","rcs_meters":null,"size_class":null,"mass_kg":null,"dimensions":null,"purposes":["comms"],"wikipedia_slug":null,"has_3d_model":false,"image_url":null,"decayed_at":null,"tle_current":{"epoch":"2026-05-24T09:26:29.152608Z","epoch_age_seconds":134270,"freshness":"FRESH","line1":"1 68535U 26068AD  26144.39339297  .00030106  00000+0  69840-3 0  9990","line2":"2 68535  53.1581 137.0645 0001157  86.1541 273.9598 15.42166601  8549","mean_motion":15.42166601,"eccentricity":0.0001157,"inclination_deg":53.1581,"raan_deg":137.0645,"arg_perigee_deg":86.1541,"mean_anomaly_deg":273.9598,"bstar":0.0006984,"rev_number":854,"period_min":93.375125558176,"perigee_km":438.92737285161,"apogee_km":440.50502408174,"semimajor_km":6817.8531984667,"source":"CELESTRAK","updated_at":"2026-05-25T13:38:21.958730Z"}}}